| time (UTC) | temp F | wind direction | speed knots | gust knots | rain 1hr in | rain 24hr in | rain mn in | humidity % | barometer mb |
| 20260504175403 | 65 | 205 | 2.6 | 13.0 | 0.00 | 0.00 | 0.00 | 38 | 1023.9 |
| 20260504174404 | 67 | 239 | 3.5 | 14.8 | 0.00 | 0.00 | 0.00 | 34 | 1023.9 |
| 20260504173404 | 67 | 291 | 5.2 | 20.0 | 0.00 | 0.00 | 0.00 | 37 | 1023.9 |
| 20260504172403 | 68 | 144 | 5.2 | 17.4 | 0.00 | 0.00 | 0.00 | 40 | 1023.9 |
| 20260504171403 | 67 | 189 | 6.1 | 20.9 | 0.00 | 0.00 | 0.00 | 37 | 1023.9 |
| 20260504170404 | 66 | 219 | 0.9 | 22.6 | 0.00 | 0.00 | 0.00 | 36 | 1023.9 |
| 20260504160404 | 64 | 211 | 7.0 | 20.0 | 0.00 | 0.00 | 0.00 | 38 | 1023.9 |
| 20260504150404 | 62 | 214 | 7.8 | 14.8 | 0.00 | 0.00 | 0.00 | 43 | 1023.9 |
| 20260504140404 | 59 | 222 | 5.2 | 12.2 | 0.00 | 0.00 | 0.00 | 47 | 1023.9 |
| 20260504130403 | 55 | 219 | 5.2 | 12.2 | 0.00 | 0.00 | 0.00 | 52 | 1023.9 |
| 20260504110403 | 44 | 227 | 2.6 | 7.0 | 0.00 | 0.00 | 0.00 | 68 | 1023.9 |
| 20260504100403 | 39 | 209 | 1.7 | 4.3 | 0.00 | 0.00 | 0.00 | 78 | 1023.9 |
| 20260504081404 | 43 | 205 | 0.9 | 4.3 | 0.00 | 0.00 | 0.00 | 73 | 1023.9 |
| 20260504080404 | 43 | 203 | 0.0 | 2.6 | 0.00 | 0.00 | 0.00 | 71 | 1023.9 |
| 20260504070404 | 42 | 234 | 0.0 | 4.3 | 0.00 | 0.00 | 0.00 | 73 | 1023.9 |
| 20260504050404 | 39 | 240 | 0.0 | 2.6 | 0.00 | 0.00 | 0.00 | 71 | 1023.9 |
| 20260504045403 | 39 | 239 | 0.0 | 2.6 | 0.00 | 0.00 | 0.00 | 70 | 1023.9 |
| 20260504044403 | 38 | 238 | 0.0 | 0.0 | 0.00 | 0.00 | 0.00 | 74 | 1023.9 |
| 20260504043403 | 37 | 238 | 0.0 | 0.0 | 0.00 | 0.00 | 0.00 | 74 | 1023.9 |
| 20260504042404 | 37 | 238 | 0.0 | 0.0 | 0.00 | 0.00 | 0.00 | 73 | 1023.9 |
| 20260504041404 | 37 | 238 | 0.0 | 0.0 | 0.00 | 0.00 | 0.00 | 73 | 1023.9 |
| 20260504040404 | 36 | 238 | 0.0 | 0.0 | 0.00 | 0.00 | 0.00 | 75 | 1023.9 |
| 20260504035404 | 36 | 238 | 0.0 | 0.0 | 0.00 | 0.00 | 0.00 | 77 | 1023.9 |
| 20260504034403 | 35 | 238 | 0.0 | 0.0 | 0.00 | 0.00 | 0.00 | 75 | 1023.9 |
| 20260504033403 | 34 | 238 | 0.0 | 0.0 | 0.00 | 0.00 | 0.00 | 74 | 1023.9 |
| 20260504032404 | 35 | 238 | 0.0 | 0.0 | 0.00 | 0.00 | 0.00 | 77 | 1023.9 |
| 20260504031404 | 35 | 238 | 0.0 | 0.0 | 0.00 | 0.00 | 0.00 | 76 | 1023.9 |
| 20260504030404 | 35 | 238 | 0.0 | 0.0 | 0.00 | 0.00 | 0.00 | 75 | 1023.9 |
| 20260504025404 | 35 | 238 | 0.0 | 0.0 | 0.00 | 0.00 | 0.00 | 77 | 1023.9 |
| 20260504024404 | 35 | 238 | 0.0 | 0.0 | 0.00 | 0.00 | 0.00 | 76 | 1023.9 |
| 20260504023403 | 35 | 238 | 0.0 | 0.0 | 0.00 | 0.00 | 0.00 | 74 | 1023.9 |
| 20260504022404 | 35 | 238 | 0.0 | 0.0 | 0.00 | 0.00 | 0.00 | 74 | 1023.9 |
| 20260504021403 | 35 | 238 | 0.0 | 0.0 | 0.00 | 0.00 | 0.00 | 75 | 1023.9 |
| 20260504020404 | 35 | 238 | 0.0 | 0.0 | 0.00 | 0.00 | 0.00 | 74 | 1023.9 |
| 20260504015404 | 35 | 238 | 0.0 | 0.0 | 0.00 | 0.00 | 0.00 | 73 | 1023.9 |
| 20260504014404 | 35 | 238 | 0.0 | 0.0 | 0.00 | 0.00 | 0.00 | 72 | 1023.9 |
| 20260504013404 | 36 | 238 | 0.0 | 0.0 | 0.00 | 0.00 | 0.00 | 72 | 1023.9 |
| 20260504012403 | 36 | 238 | 0.0 | 0.0 | 0.00 | 0.00 | 0.00 | 70 | 1023.9 |
| 20260504011403 | 36 | 238 | 0.0 | 0.0 | 0.00 | 0.00 | 0.00 | 70 | 1023.9 |
| 20260504010405 | 37 | 238 | 0.0 | 0.0 | 0.00 | 0.00 | 0.00 | 71 | 1023.9 |
| 20260504005403 | 38 | 238 | 0.0 | 0.0 | 0.00 | 0.00 | 0.00 | 69 | 1023.9 |
| 20260504004404 | 38 | 238 | 0.0 | 0.0 | 0.00 | 0.00 | 0.00 | 69 | 1023.9 |
| 20260504003404 | 39 | 238 | 0.0 | 0.0 | 0.00 | 0.00 | 0.00 | 65 | 1023.9 |
| 20260504002404 | 40 | 238 | 0.0 | 0.0 | 0.00 | 0.00 | 0.00 | 63 | 1023.9 |
| 20260504001404 | 41 | 238 | 0.0 | 0.0 | 0.00 | 0.00 | 0.00 | 64 | 1023.9 |
| 20260504000404 | 42 | 238 | 0.0 | 0.0 | 0.00 | 0.00 | 0.00 | 60 | 1023.9 |
| 20260503235404 | 43 | 238 | 0.0 | 0.0 | 0.00 | 0.00 | 0.00 | 52 | 1023.9 |
| 20260503234404 | 44 | 238 | 0.0 | 0.0 | 0.00 | 0.00 | 0.00 | 51 | 1023.9 |
| 20260503233404 | 45 | 238 | 0.0 | 0.0 | 0.00 | 0.00 | 0.00 | 51 | 1023.9 |
| 20260503232404 | 46 | 238 | 0.0 | 4.3 | 0.00 | 0.00 | 0.00 | 49 | 1023.9 |
| 20260503231404 | 47 | 256 | 1.7 | 7.0 | 0.00 | 0.00 | 0.00 | 46 | 1023.9 |
| 20260503230404 | 47 | 321 | 1.7 | 11.3 | 0.00 | 0.00 | 0.00 | 45 | 1023.9 |
| 20260503225404 | 47 | 285 | 2.6 | 11.3 | 0.00 | 0.00 | 0.00 | 45 | 1023.9 |
| 20260503224404 | 48 | 311 | 1.7 | 12.2 | 0.00 | 0.00 | 0.00 | 44 | 1023.9 |
| 20260503223404 | 48 | 302 | 5.2 | 10.4 | 0.00 | 0.00 | 0.00 | 44 | 1023.9 |
| 20260503222404 | 48 | 325 | 1.7 | 13.0 | 0.00 | 0.00 | 0.00 | 44 | 1023.9 |
| 20260503221403 | 49 | 281 | 0.9 | 10.4 | 0.00 | 0.00 | 0.00 | 45 | 1023.9 |
| 20260503220404 | 48 | 296 | 5.2 | 7.8 | 0.00 | 0.00 | 0.00 | 44 | 1023.9 |
| 20260503215404 | 48 | 299 | 4.3 | 10.4 | 0.00 | 0.00 | 0.00 | 44 | 1023.9 |
| 20260503214404 | 49 | 328 | 0.9 | 7.0 | 0.00 | 0.00 | 0.00 | 43 | 1023.9 |
| 20260503213403 | 48 | 295 | 1.7 | 10.4 | 0.00 | 0.00 | 0.00 | 45 | 1023.9 |
| 20260503212403 | 49 | 306 | 2.6 | 10.4 | 0.00 | 0.00 | 0.00 | 45 | 1023.9 |
| 20260503211403 | 49 | 245 | 0.9 | 13.0 | 0.00 | 0.00 | 0.00 | 44 | 1023.9 |
| 20260503210404 | 49 | 293 | 2.6 | 11.3 | 0.00 | 0.00 | 0.00 | 43 | 1023.9 |
| 20260503205403 | 49 | 13 | 4.3 | 8.7 | 0.00 | 0.00 | 0.00 | 44 | 1023.9 |
| 20260503204404 | 48 | 331 | 0.0 | 10.4 | 0.00 | 0.00 | 0.00 | 45 | 1023.9 |
| 20260503203404 | 49 | 296 | 1.7 | 13.9 | 0.00 | 0.00 | 0.00 | 44 | 1023.9 |
| 20260503202403 | 49 | 281 | 5.2 | 18.2 | 0.00 | 0.00 | 0.00 | 44 | 1023.9 |
| 20260503201403 | 48 | 320 | 1.7 | 17.4 | 0.00 | 0.00 | 0.00 | 45 | 1023.9 |
| 20260503200403 | 48 | 319 | 2.6 | 11.3 | 0.00 | 0.00 | 0.00 | 45 | 1023.9 |
| 20260503195403 | 48 | 267 | 2.6 | 20.9 | 0.00 | 0.00 | 0.00 | 45 | 1023.9 |
| 20260503194404 | 48 | 315 | 6.1 | 18.2 | 0.00 | 0.00 | 0.00 | 45 | 1023.9 |
| 20260503193404 | 48 | 329 | 4.3 | 14.8 | 0.00 | 0.00 | 0.00 | 46 | 1023.9 |
| 20260503192403 | 47 | 287 | 2.6 | 14.8 | 0.00 | 0.00 | 0.00 | 47 | 1023.9 |
| 20260503191404 | 49 | 295 | 2.6 | 10.4 | 0.00 | 0.00 | 0.00 | 45 | 1023.9 |
| 20260503190404 | 50 | 268 | 0.9 | 25.2 | 0.00 | 0.00 | 0.00 | 46 | 1023.9 |
| 20260503185404 | 51 | 335 | 1.7 | 15.6 | 0.00 | 0.00 | 0.00 | 43 | 1023.9 |
| 20260503184404 | 52 | 297 | 5.2 | 17.4 | 0.00 | 0.00 | 0.00 | 42 | 1023.9 |
| 20260503183404 | 51 | 305 | 4.3 | 14.8 | 0.00 | 0.00 | 0.00 | 45 | 1023.9 |
| 20260503182404 | 49 | 307 | 1.7 | 14.8 | 0.00 | 0.00 | 0.00 | 51 | 1023.9 |
| 20260503181403 | 48 | 350 | 2.6 | 11.3 | 0.00 | 0.00 | 0.00 | 49 | 1023.9 |
| 20260503180404 | 48 | 321 | 2.6 | 11.3 | 0.00 | 0.00 | 0.00 | 48 | 1023.9 |